| time (UTC) | temp C | wind direction | speed KPH | gust KPH | rain 1hr cm | rain 24hr cm | rain mn cm | humidity % | barometer mb |
| 20260901183026 | 15 | 244 | 0.0 | 1.6 | 0.00 | 0.03 | 0.00 | 81 | 1020.3 |
| 20260901181526 | 16 | 244 | 0.0 | 1.6 | 0.00 | 0.03 | 0.00 | 80 | 1020.3 |
| 20260901180026 | 16 | 244 | 0.0 | 1.6 | 0.00 | 0.03 | 0.00 | 78 | 1020.2 |
| 20260901174526 | 16 | 244 | 0.0 | 0.0 | 0.00 | 0.05 | 0.00 | 76 | 1020.1 |
| 20260901173024 | 17 | 244 | 0.0 | 3.2 | 0.00 | 0.05 | 0.00 | 75 | 1020.2 |
| 20260901171524 | 17 | 340 | 0.0 | 4.8 | 0.00 | 0.05 | 0.00 | 73 | 1020.1 |
| 20260901170024 | 17 | 276 | 1.6 | 4.8 | 0.00 | 0.05 | 0.00 | 72 | 1020.0 |
| 20260901164524 | 18 | 254 | 0.0 | 4.8 | 0.00 | 0.05 | 0.00 | 72 | 1020.1 |
| 20260901163024 | 18 | 244 | 0.0 | 8.0 | 0.00 | 0.05 | 0.00 | 71 | 1020.0 |
| 20260901161534 | 18 | 5 | 1.6 | 8.0 | 0.00 | 0.05 | 0.00 | 70 | 1020.0 |
| 20260901160036 | 18 | 296 | 1.6 | 12.9 | 0.00 | 0.05 | 0.00 | 70 | 1020.0 |
| 20260901154523 | 19 | 24 | 1.6 | 16.1 | 0.00 | 0.08 | 0.00 | 67 | 1020.0 |
| 20260901153019 | 18 | 268 | 3.2 | 14.5 | 0.00 | 0.08 | 0.00 | 67 | 1020.1 |
| 20260901151516 | 18 | 232 | 3.2 | 16.1 | 0.00 | 0.08 | 0.00 | 69 | 1020.1 |
| 20260901150015 | 18 | 239 | 3.2 | 17.7 | 0.00 | 0.08 | 0.00 | 70 | 1020.0 |
| 20260901144514 | 18 | 269 | 4.8 | 12.9 | 0.00 | 0.10 | 0.00 | 71 | 1020.0 |
| 20260901143014 | 17 | 351 | 4.8 | 12.9 | 0.00 | 0.10 | 0.00 | 73 | 1020.1 |
| 20260901141512 | 18 | 311 | 3.2 | 9.7 | 0.00 | 0.10 | 0.00 | 72 | 1020.1 |
| 20260901140012 | 18 | 333 | 3.2 | 11.3 | 0.00 | 0.10 | 0.00 | 71 | 1020.2 |
| 20260901134513 | 18 | 244 | 1.6 | 8.0 | 0.00 | 0.20 | 0.00 | 72 | 1020.1 |
| 20260901133010 | 17 | 240 | 6.4 | 19.3 | 0.00 | 0.20 | 0.00 | 69 | 1020.2 |
| 20260901131513 | 17 | 281 | 1.6 | 12.9 | 0.00 | 0.20 | 0.00 | 74 | 1020.2 |
| 20260901130010 | 17 | 250 | 1.6 | 9.7 | 0.00 | 0.20 | 0.00 | 78 | 1020.5 |
| 20260901124509 | 16 | 223 | 3.2 | 8.0 | 0.00 | 0.20 | 0.00 | 81 | 1020.5 |
| 20260901123008 | 16 | 5 | 1.6 | 11.3 | 0.00 | 0.20 | 0.00 | 79 | 1020.4 |
| 20260901121507 | 16 | 248 | 3.2 | 11.3 | 0.00 | 0.20 | 0.00 | 77 | 1020.4 |
| 20260901120006 | 16 | 32 | 1.6 | 8.0 | 0.00 | 0.20 | 0.00 | 77 | 1020.5 |
| 20260901114504 | 17 | 294 | 3.2 | 17.7 | 0.00 | 0.23 | 0.00 | 73 | 1020.3 |
| 20260901113002 | 18 | 261 | 3.2 | 17.7 | 0.00 | 0.23 | 0.00 | 72 | 1020.1 |
| 20260901111502 | 18 | 260 | 4.8 | 19.3 | 0.00 | 0.23 | 0.00 | 74 | 1020.1 |
| 20260901110107 | 17 | 240 | 4.8 | 14.5 | 0.00 | 0.23 | 0.00 | 75 | 1020.1 |
| 20260901104603 | 17 | 231 | 6.4 | 22.5 | 0.00 | 0.23 | 0.00 | 72 | 1020.2 |
| 20260901103101 | 17 | 316 | 6.4 | 17.7 | 0.00 | 0.23 | 0.00 | 74 | 1020.2 |
| 20260901101611 | 16 | 237 | 3.2 | 19.3 | 0.00 | 0.23 | 0.00 | 81 | 1020.2 |
| 20260901100107 | 16 | 260 | 6.4 | 17.7 | 0.00 | 0.23 | 0.00 | 80 | 1020.3 |
| 20260901094550 | 16 | 217 | 4.8 | 16.1 | 0.00 | 0.23 | 0.00 | 83 | 1020.2 |
| 20260901093049 | 15 | 182 | 4.8 | 20.9 | 0.00 | 0.23 | 0.00 | 82 | 1020.1 |
| 20260901091549 | 15 | 229 | 9.7 | 20.9 | 0.00 | 0.23 | 0.00 | 82 | 1020.2 |
| 20260901090050 | 15 | 226 | 4.8 | 24.1 | 0.00 | 0.23 | 0.00 | 82 | 1020.1 |
| 20260901084547 | 16 | 203 | 4.8 | 25.7 | 0.00 | 0.23 | 0.00 | 83 | 1019.9 |
| 20260901083042 | 15 | 262 | 4.8 | 25.7 | 0.00 | 0.23 | 0.00 | 85 | 1019.8 |
| 20260901081545 | 15 | 275 | 9.7 | 25.7 | 0.00 | 0.23 | 0.00 | 85 | 1019.7 |
| 20260901080043 | 14 | 230 | 6.4 | 14.5 | 0.00 | 0.23 | 0.00 | 89 | 1019.7 |
| 20260901074535 | 14 | 238 | 4.8 | 16.1 | 0.00 | 0.23 | 0.00 | 91 | 1019.6 |
| 20260901073037 | 13 | 258 | 3.2 | 12.9 | 0.00 | 0.23 | 0.00 | 91 | 1019.5 |
| 20260901071533 | 13 | 211 | 3.2 | 12.9 | 0.00 | 0.23 | 0.00 | 92 | 1019.4 |
| 20260901070034 | 13 | 271 | 6.4 | 17.7 | 0.00 | 0.23 | 0.00 | 92 | 1019.3 |
| 20260901064531 | 13 | 240 | 4.8 | 17.7 | 0.00 | 0.23 | 0.00 | 93 | 1019.4 |
| 20260901063029 | 13 | 233 | 4.8 | 16.1 | 0.00 | 0.23 | 0.00 | 93 | 1019.4 |
| 20260901061528 | 13 | 241 | 9.7 | 24.1 | 0.00 | 0.23 | 0.00 | 93 | 1019.1 |
| 20260901060026 | 13 | 234 | 6.4 | 16.1 | 0.00 | 0.23 | 0.00 | 93 | 1019.0 |
| 20260901054525 | 13 | 249 | 8.0 | 22.5 | 0.00 | 0.23 | 0.00 | 93 | 1019.0 |
| 20260901053023 | 13 | 277 | 8.0 | 17.7 | 0.00 | 0.23 | 0.00 | 93 | 1018.9 |
| 20260901051522 | 13 | 223 | 6.4 | 17.7 | 0.00 | 0.23 | 0.00 | 93 | 1018.9 |
| 20260901050021 | 12 | 203 | 4.8 | 16.1 | 0.00 | 0.23 | 0.00 | 92 | 1018.8 |
| 20260901044518 | 12 | 137 | 8.0 | 19.3 | 0.00 | 0.23 | 0.00 | 92 | 1018.7 |
| 20260901043020 | 13 | 274 | 4.8 | 17.7 | 0.00 | 0.23 | 0.00 | 92 | 1018.6 |
| 20260901041514 | 13 | 246 | 4.8 | 16.1 | 0.00 | 0.23 | 0.00 | 92 | 1018.4 |
| 20260901040013 | 13 | 221 | 1.6 | 12.9 | 0.00 | 0.23 | 0.00 | 92 | 1018.4 |
| 20260901034513 | 13 | 261 | 3.2 | 14.5 | 0.00 | 0.23 | 0.00 | 92 | 1018.4 |
| 20260901033010 | 13 | 248 | 3.2 | 14.5 | 0.00 | 0.23 | 0.00 | 92 | 1018.3 |
| 20260901031509 | 13 | 266 | 4.8 | 17.7 | 0.00 | 0.23 | 0.00 | 92 | 1018.4 |
| 20260901030014 | 13 | 239 | 6.4 | 16.1 | 0.00 | 0.23 | 0.00 | 92 | 1018.3 |
| 20260901024506 | 13 | 268 | 4.8 | 14.5 | 0.00 | 0.23 | 0.00 | 92 | 1018.4 |
| 20260901023004 | 13 | 261 | 3.2 | 9.7 | 0.00 | 0.23 | 0.00 | 92 | 1018.2 |
| 20260901021504 | 13 | 259 | 6.4 | 16.1 | 0.00 | 0.23 | 0.00 | 92 | 1018.2 |
| 20260901020002 | 13 | 250 | 3.2 | 16.1 | 0.00 | 0.23 | 0.00 | 92 | 1018.1 |
| 20260901014501 | 13 | 238 | 3.2 | 16.1 | 0.00 | 0.23 | 0.00 | 92 | 1018.0 |
| 20260901013108 | 13 | 245 | 1.6 | 12.9 | 0.00 | 0.23 | 0.00 | 92 | 1017.9 |
| 20260901011559 | 13 | 235 | 4.8 | 17.7 | 0.00 | 0.23 | 0.00 | 91 | 1017.9 |
| 20260901010057 | 13 | 253 | 6.4 | 17.7 | 0.00 | 0.23 | 0.00 | 91 | 1017.9 |
| 20260901004557 | 13 | 249 | 3.2 | 22.5 | 0.00 | 0.23 | 0.00 | 91 | 1017.8 |
| 20260901003059 | 13 | 242 | 3.2 | 12.9 | 0.00 | 0.23 | 0.00 | 90 | 1017.7 |
| 20260901001607 | 13 | 211 | 6.4 | 17.7 | 0.00 | 0.23 | 0.00 | 90 | 1017.8 |
| 20260901000056 | 13 | 275 | 6.4 | 22.5 | 0.00 | 0.23 | 0.00 | 90 | 1017.8 |
| 20260831234602 | 13 | 267 | 4.8 | 20.9 | 0.00 | 0.23 | 0.00 | 90 | 1017.9 |
| 20260831233050 | 13 | 286 | 6.4 | 20.9 | 0.00 | 0.23 | 0.00 | 90 | 1017.9 |
| 20260831231547 | 13 | 252 | 4.8 | 16.1 | 0.00 | 0.23 | 0.00 | 90 | 1017.9 |
| 20260831230045 | 13 | 251 | 4.8 | 17.7 | 0.00 | 0.23 | 0.00 | 90 | 1018.0 |
| 20260831224543 | 13 | 267 | 8.0 | 17.7 | 0.00 | 0.23 | 0.00 | 90 | 1018.0 |
| 20260831223044 | 13 | 263 | 4.8 | 16.1 | 0.00 | 0.23 | 0.00 | 90 | 1017.9 |
| 20260831221542 | 13 | 298 | 3.2 | 19.3 | 0.00 | 0.23 | 0.00 | 90 | 1017.9 |
| 20260831220046 | 13 | 266 | 3.2 | 20.9 | 0.00 | 0.23 | 0.00 | 90 | 1017.9 |
| 20260831214538 | 13 | 267 | 6.4 | 19.3 | 0.00 | 0.23 | 0.23 | 91 | 1017.8 |
| 20260831213038 | 13 | 265 | 3.2 | 19.3 | 0.00 | 0.23 | 0.23 | 90 | 1017.7 |
| 20260831211534 | 13 | 238 | 6.4 | 19.3 | 0.00 | 0.23 | 0.23 | 91 | 1017.5 |
| 20260831210036 | 13 | 237 | 8.0 | 17.7 | 0.00 | 0.23 | 0.23 | 91 | 1017.3 |
| 20260831204530 | 13 | 242 | 4.8 | 17.7 | 0.00 | 0.23 | 0.23 | 91 | 1017.4 |
| 20260831203028 | 13 | 291 | 3.2 | 9.7 | 0.00 | 0.23 | 0.23 | 91 | 1017.3 |
| 20260831201536 | 13 | 240 | 4.8 | 14.5 | 0.00 | 0.23 | 0.23 | 92 | 1017.1 |
| 20260831200029 | 13 | 257 | 3.2 | 12.9 | 0.00 | 0.23 | 0.23 | 91 | 1016.9 |
| 20260831194535 | 13 | 247 | 3.2 | 12.9 | 0.00 | 0.23 | 0.23 | 91 | 1016.8 |
| 20260831193025 | 13 | 229 | 3.2 | 9.7 | 0.00 | 0.23 | 0.23 | 90 | 1016.5 |
| 20260831191518 | 13 | 253 | 4.8 | 14.5 | 0.03 | 0.23 | 0.23 | 90 | 1016.2 |
| 20260831190016 | 13 | 287 | 4.8 | 19.3 | 0.03 | 0.23 | 0.23 | 90 | 1016.0 |
| 20260831184522 | 13 | 30 | 6.4 | 27.4 | 0.05 | 0.23 | 0.23 | 90 | 1015.8 |